This is the latest recevied weather packets stored in our database for station/object SP2WPY-13. If no packets are shown the sender has not sent any weather packets the latest 10 day(s).
| Time | Temp. | Humidity | Pressure | Rain* | Wind** | Luminosity | Snow |
|---|---|---|---|---|---|---|---|
| 1777719071 | 26.67° C | 19% | 1023.5 hPa | - | - | - | - |
| 1777718797 | 26.11° C | 20% | 1023.6 hPa | - | - | - | - |
| 1777718477 | 25° C | 21% | 1023.7 hPa | - | - | - | - |
| 1777718202 | 25° C | 19% | 1023.7 hPa | - | - | - | - |
| 1777717883 | 26.11° C | 20% | 1023.8 hPa | - | - | - | - |
| 1777717563 | 25° C | 21% | 1023.8 hPa | - | - | - | - |
| 1777717289 | 24.44° C | 21% | 1023.8 hPa | - | - | - | - |
| 1777716970 | 23.89° C | 22% | 1023.9 hPa | - | - | - | - |
| 1777716695 | 23.33° C | 22% | 1024 hPa | - | - | - | - |
| 1777716376 | 23.33° C | 22% | 1024 hPa | - | - | - | - |
| 1777716102 | 24.44° C | 21% | 1024.1 hPa | - | - | - | - |
| 1777715782 | 24.44° C | 21% | 1024.1 hPa | - | - | - | - |
| 1777715463 | 25° C | 20% | 1024.2 hPa | - | - | - | - |
| 1777715188 | 25.56° C | 21% | 1024.2 hPa | - | - | - | - |
| 1777714869 | 24.44° C | 23% | 1024.2 hPa | - | - | - | - |
| 1777714595 | 24.44° C | 22% | 1024.4 hPa | - | - | - | - |
| 1777714276 | 23.89° C | 23% | 1024.4 hPa | - | - | - | - |
| 1777714002 | 23.33° C | 23% | 1024.6 hPa | - | - | - | - |
| 1777713681 | 22.78° C | 24% | 1024.5 hPa | - | - | - | - |
| 1777713362 | 22.78° C | 24% | 1024.5 hPa | - | - | - | - |
| 1777713089 | 22.22° C | 25% | 1024.6 hPa | - | - | - | - |
| 1777712768 | 22.22° C | 24% | 1024.7 hPa | - | - | - | - |
| 1777712495 | 22.22° C | 26% | 1024.7 hPa | - | - | - | - |
| 1777712175 | 22.78° C | 24% | 1024.7 hPa | - | - | - | - |
| 1777711901 | 23.33° C | 24% | 1024.8 hPa | - | - | - | - |
* Rain since midnight (hover to see other rain measurements)
** Current wind speed in m/s (hover to see current wind gust speed)